POKER ONLINE Indonesia Terpercaya | Agen Dewa Poker88 - Hoya Jackpot

Jackpot

Texas Poker Multi Jackpot System

Kini Telah hadir Jackpot SUPER ROYAL FLUSH

Kini Telah hadir Jackpot 2000 (khusus table VIP keatas).

Ikutilah global jackpot yang tersedia di system kami, dengan system jackpot terbaru dan pertama di indonesia, anda dapat membeli jackpot dengan harga 100 rupiah saja dan menangkan hadiahnya hingga puluhan juta rupiah.

Jackpot bukanlah suatu keharusan untuk dibeli, namun kami memberikan suatu fitur tambahan untuk member tercinta dari www.hoyajackpot99.com.

Terdapat tiga pilihan harga jackpot yang bisa anda beli yaitu :100,500,1000 dan 2000(khusus table VIP Keatas) rupiah.

Hadiah dari Multi jackpot system www.hoyajackpot99.com

  1. full house x 10 harga jackpot yang anda beli.
      (contoh:anda membeli 1000 maka:1000 X10 = 10.000)
  2. four of kind x 250 harga jackpot yang anda beli
      (contoh:anda membeli 1000 maka:1000 X250 = 250.000)
  3. Straight flush x 1200
      (contoh:anda membeli 1000 maka:1000 X1200 = 1.200.000)
  4. Royal flush x 10000 harga jackpot yang anda beli
      (contoh:anda membeli 1000 maka:1000 X10000 = 10.000.000)
  5. SUPER ROYAL FLUSH x 30000 harga jackpot yang anda beli
      (contoh:anda membeli 1000 maka:1000 X30000 = 30.000.000)

Kondisi kartu

  1. full house adalah kondisi kartu dimana kartu anda dan kartu tengah dengan total 7 kartu bisa mendapatkan nilai 5 kartu dengan kombinasi 1 tris(three of kind) dan 1 pair, contoh 3 kartu 10 dan 2 kartu 5
  2. Four of kind adalah kondisi kartu dimana kartu anda dan kartu tengah dengan total 7 kartu bisa mendapatkan nilai 5 kartu dengan kombinasi 4 kartu yang sama jumlah dan 1 kartu apapun juga contoh anda mendapatkan 4 buah kartu angka 3 dan 1 kartu apapun.
  3. Staright flush adalah kondisi kartu dimana kartu anda dan kartu tengah dengan total 7 kartu bisa mendapatkan nilai 5 kartu dengan kombinasi seri / staright dengan kembang yang sama contoh : urutan kartu dari angka 5, 6, 7, 8 , 9 10 dengan kembang yg sama misalnya as hati
  4. Royal flush adalah kondisi kartu dimana kartu anda dan kartu tengah dengan total 7 kartu bisa mendapatkan nilai 5 kartu dengan kombinasi seri / staright dengan kembang yang sama tetapi kartu tersebut haruslah dimulai dari 10. contoh 10, Queen, Jack, King dan aces dengan kembang yang sama
  5. Super Royal flush adalah kondisi kartu dimana Kedua kartu anda digabung dengan 3 kartu pertama meja haruslah royal flush. contoh kartu anda 10,Queen kembang sama dan 3 kartu pertama meja adalah Jack, King dan aces dengan kembang yang sama

Demikian adalah penjelasan dari Multi Jackpot www.hoyajackpot99.com terima kasih dan selamat bermain salam hoki dari kami

Texas Poker Jackpot Winner

TOP SUPER ROYAL FLUSH
No.TanggalNamaPriceWin
121/04 17:27COYYOUNFLOSuper Royal flush15,000,000
221/04 15:59AHOK787Super Royal flush6,000,000
321/04 13:00SEMBILAN81Super Royal flush15,000,000
421/04 04:00B4NDARC3MESuper Royal flush3,000,000
521/04 03:38OSESIAMSuper Royal flush15,000,000
TOP ROYAL FLUSH
No.TanggalNamaPriceWin
121/04 18:44HMSTAYRoyal flush2,000,000
221/04 18:42SON5ONRoyal flush5,000,000
321/04 18:37PANDAWA_5Royal flush2,000,000
421/04 18:34DERASLP01Royal flush2,000,000
521/04 18:30LAMQUIE01Royal flush2,000,000
TOP STRAIGHT FLUSH
No.TanggalNamaPriceWin
121/04 18:45J3NN1F3RStraight Flush240,000
221/04 18:43JERAWIStraight Flush240,000
321/04 18:43ASEDQWStraight Flush240,000
421/04 18:41KIPLI1105Straight Flush1,200,000
521/04 18:39PALEMBU46Straight Flush600,000
LATEST JACKPOT
No.TanggalNamaPriceWin
121/04 18:46THANHTHUYFull House10,000
221/04 18:46JAAAN01Four Of A Kind250,000
321/04 18:46DWBT464610Full House2,000
421/04 18:46A20GESREK9934Full House1,000
521/04 18:46ZENDOL28Full House1,000
621/04 18:46A5990Four Of A Kind125,000
721/04 18:46C1VCP0N75DFull House1,000
821/04 18:46QRUIZFull House1,000
921/04 18:46ZAENALYOIFull House2,000
1021/04 18:46GORDON212Full House10,000
1121/04 18:46DARTO15Full House10,000
1221/04 18:46SWADOK88Full House5,000
1321/04 18:46T14RA02Full House1,000
1421/04 18:46BANGKOMFull House2,000
1521/04 18:46DPO1234Full House2,000
1621/04 18:46BEJECKFull House2,000
1721/04 18:46BLACK02_Full House500
1821/04 18:46OGYRMD888Full House500
1921/04 18:46R0B11Full House2,000
2021/04 18:46KITINK15Full House5,000
2121/04 18:46MSC69Full House1,000
2221/04 18:46JOEYSRFull House2,000
2321/04 18:46SIHIONG04Full House1,000
2421/04 18:46SUSES12Four Of A Kind50,000
2521/04 18:46SON_02Full House10,000
2621/04 18:46JOY74Full House1,000
2721/04 18:45AUTOBOT91Full House2,000
2821/04 18:45ONEHEAD15Full House1,000
2921/04 18:45DEVUCK18Full House2,000
3021/04 18:45SANGKUT81Full House5,000
3121/04 18:45WANGKAYYAFull House5,000
3221/04 18:45HASIL0PFull House10,000
3321/04 18:45ATOM69Full House10,000
3421/04 18:45OTTY2017Full House500
3521/04 18:45JRS96Full House10,000
3621/04 18:45HARD13Full House5,000
3721/04 18:45SHEMERAHFull House2,000
3821/04 18:45ROSODOANKFull House2,000
3921/04 18:45TEMPUR123Full House2,000
4021/04 18:45ALDO1208Full House10,000
4121/04 18:45SANKURIAFull House5,000
4221/04 18:45BOYKAN388Full House2,000
4321/04 18:45FANS555Full House10,000
4421/04 18:45YULIA87Full House5,000
4521/04 18:45AMAY05Full House2,000
4621/04 18:45GI35UCWPZWFull House2,000
4721/04 18:45VIKARAVIKAFull House1,000
4821/04 18:45OX5A0DR87GFull House5,000
4921/04 18:45BLACKTERORFull House10,000
5021/04 18:45ALADIN450Full House1,000

Domino Multi Jackpot System

Ikutilah global jackpot yang tersedia di system kami, dengan system jackpot terbaru dan pertama di indonesia, anda dapat membeli jackpot dengan harga 100 rupiah saja dan menangkan hadiahnya hingga puluhan juta rupiah.

Jackpot bukanlah suatu keharusan untuk dibeli, namun kami memberikan suatu fitur tambahan untuk member tercinta dari www.hoyajackpot99.com.

Terdapat tiga pilihan harga jackpot yang bisa anda beli yaitu :100,500 dan 1000 rupiah.

Hadiah dari Multi jackpot system www.hoyajackpot99.com

  1. Murni Kecil x 50 harga jackpot yang anda beli.
      (contoh:anda membeli 1000 maka:1000 X 50 = 50.000)
  2. Murni Besar x 50 harga jackpot yang anda beli
      (contoh:anda membeli 1000 maka:1000 X 50 = 50.000)
  3. BALAK x 100 harga jackpot yang anda beli
      (contoh:anda membeli 1000 maka:1000 X 100 = 100.000)
  4. ENAM DEWA x 6666 harga jackpot yang anda beli
      (contoh:anda membeli 1000 maka:1000 X 6666 = 6.666.000)

Demikian adalah penjelasan dari Multi Jackpot www.hoyajackpot99.com terima kasih dan selamat bermain salam hoki dari kami

Domino Jackpot Winner

TOP ENAM DEWA
No.TanggalNamaPriceWin
121/04 17:52KALOK99murni enam6,666,000
221/04 15:47K3W3Qmurni enam6,666,000
321/04 14:45HAMAD997murni enam3,333,000
421/04 09:18OUYAGmurni enam6,666,000
521/04 08:18SING_HASILmurni enam3,333,000
TOP BALAK
No.TanggalNamaPriceWin
121/04 18:43HOMUDWYI34balak100,000
221/04 18:43UYU6NGbalak100,000
321/04 18:42WOWOO7balak100,000
421/04 18:42ARKHAN29balak100,000
521/04 18:38ENES_BRSTUbalak100,000
LATEST JACKPOT
No.TanggalNamaPriceWin
121/04 18:44CUTZZZmurni besar5,000
221/04 18:44VHALENDHAmurni besar50,000
321/04 18:43HOMUDWYI34balak100,000
421/04 18:43AADRAAAA95murni kecil25,000
521/04 18:43GAL27murni besar50,000
621/04 18:43UYU6NGbalak100,000
721/04 18:42WOWOO7balak100,000
821/04 18:42ARKHAN29balak100,000
921/04 18:42LIMCIAWMEmurni besar50,000
1021/04 18:40JTPLATmurni kecil50,000
1121/04 18:39BUSER123murni besar50,000
1221/04 18:38PUTRABADAmurni besar50,000
1321/04 18:38OWEKACRUTmurni kecil25,000
1421/04 18:38ASDFG008murni besar25,000
1521/04 18:38ILHAMS89murni kecil50,000
1621/04 18:38DOWN111murni kecil5,000
1721/04 18:38ENES_BRSTUbalak100,000
1821/04 18:37ASDFG008lucky9910,000
1921/04 18:36LIMCIAWMEmurni besar50,000
2021/04 18:36SUPERMAN_1balak100,000
2121/04 18:35ASDFG008murni kecil25,000
2221/04 18:35S7DUSTJO8Emurni kecil25,000
2321/04 18:34TASIIKmurni besar25,000
2421/04 18:34WAWONII123murni besar50,000
2521/04 18:34EDG62XFES6murni besar25,000
2621/04 18:33AMEKROBERTmurni besar5,000
2721/04 18:33SUPERMAN_1murni kecil25,000
2821/04 18:33NESA11JUNEmurni kecil25,000
2921/04 18:31MAMEMA_AZmurni besar25,000
3021/04 18:31UCHIHATACIbalak10,000
3121/04 18:31KETUAFORUMbalak50,000
3221/04 18:31DWBTNA216balak100,000
3321/04 18:30PRATAMA773lucky9925,000
3421/04 18:28HOMUDWYI34murni besar50,000
3521/04 18:27CEME9205murni kecil50,000
3621/04 18:27LUGUA09murni besar5,000
3721/04 18:27TURGISmurni besar5,000
3821/04 18:27VICKYZHUmurni besar50,000
3921/04 18:26VICKYZHUmurni besar50,000
4021/04 18:25LIA2495murni besar5,000
4121/04 18:25KURING939balak10,000
4221/04 18:25HOKY5020murni kecil5,000
4321/04 18:24BOTAKAJA1murni kecil25,000
4421/04 18:23JP0ZE9DJAXmurni besar25,000
4521/04 18:22GEPENKOBLOmurni kecil25,000
4621/04 18:22CHINC4Ymurni besar5,000
4721/04 18:21TASIIKmurni kecil25,000
4821/04 18:20AAMMADI99balak50,000
4921/04 18:20BUDAKTU123murni besar50,000
5021/04 18:20RAN6666balak100,000

Ceme Multi Jackpot System

Jackpot dilihat dari gabungan kartu pemain dengan kartu bandar. Bandar harus membeli jackpot sebanyak jumlah player yang sedang duduk. Sebagai contoh bila terdapat 3 pemain duduk bermain, dan bandar memutuskan untuk membeli jackpot Rp 1.000, maka pada periode tersebut bandar akan membeli jackpot sebanyak 3xRp1.000 = Rp3.000.

Jackpot bukanlah suatu keharusan untuk dibeli, namun kami memberikan suatu fitur tambahan untuk member tercinta dari www.hoyajackpot99.com.

Terdapat tiga pilihan harga jackpot yang bisa anda beli yaitu :100,500 dan 1000 rupiah.

Hadiah dari Multi jackpot system www.hoyajackpot99.com

  1. Murni Kecil x 50 harga jackpot yang anda beli.
      (contoh:anda membeli 1000 maka:1000 X 50 = 50.000)
  2. Murni Besar x 50 harga jackpot yang anda beli
      (contoh:anda membeli 1000 maka:1000 X 50 = 50.000)
  3. BALAK x 200 harga jackpot yang anda beli
      (contoh:anda membeli 1000 maka:1000 X 200 = 200.000)
  4. ENAM DEWA x 6666 harga jackpot yang anda beli
      (contoh:anda membeli 1000 maka:1000 X 6666 = 6.666.000)

Demikian adalah penjelasan dari Multi Jackpot www.hoyajackpot99.com terima kasih dan selamat bermain salam hoki dari kami

Ceme Jackpot Winner

TOP ENAM DEWA
No.TanggalNamaPriceWin
121/04 18:41KLIK_89murni enam3,333,000
221/04 18:41SAMIRDPmurni enam6,666,000
321/04 18:34SAIDIK09murni enam6,666,000
421/04 18:31DURNA86murni enam6,666,000
521/04 18:31COMBATZ66murni enam6,666,000
TOP BALAK
No.TanggalNamaPriceWin
121/04 18:46BANTAIABISbalak20,000
221/04 18:46ZHAFIRAH25balak100,000
321/04 18:45CLW6ME70CLbalak100,000
421/04 18:44ARIEF0584balak200,000
521/04 18:43BEZERTA88balak100,000
LATEST JACKPOT
No.TanggalNamaPriceWin
121/04 18:46DARUSS99murni besar50,000
221/04 18:46INDRAWANDEmurni besar50,000
321/04 18:46805A51N9murni besar50,000
421/04 18:46ANANGLEOmurni kecil5,000
521/04 18:46WIN343murni kecil50,000
621/04 18:46BANTAIABISbalak20,000
721/04 18:46ZHAFIRAH25balak100,000
821/04 18:46DIAN5959murni kecil25,000
921/04 18:46WANINDRImurni kecil5,000
1021/04 18:46KELIK303JOmurni kecil5,000
1121/04 18:45DURNA86murni besar50,000
1221/04 18:45ZOMBIE120murni besar50,000
1321/04 18:45CLW6ME70CLbalak100,000
1421/04 18:45PONADI90murni kecil50,000
1521/04 18:45IBLIZ345murni kecil5,000
1621/04 18:45BENEH98murni besar5,000
1721/04 18:45DOREANUS99murni kecil50,000
1821/04 18:45ADOE27murni besar5,000
1921/04 18:45RADHYTIAmurni kecil25,000
2021/04 18:44ARU66murni besar50,000
2121/04 18:44ADENOVIAmurni kecil5,000
2221/04 18:44BP885656murni besar50,000
2321/04 18:44BOYMAN95murni besar25,000
2421/04 18:44JADULL85murni kecil50,000
2521/04 18:44DARUSS99murni kecil50,000
2621/04 18:44JIMAH018murni besar5,000
2721/04 18:44ARIEF0584balak200,000
2821/04 18:44JMD79murni kecil25,000
2921/04 18:44DOREANUS99murni kecil50,000
3021/04 18:44SONIC_BOOMmurni kecil50,000
3121/04 18:44MARZI0803murni besar5,000
3221/04 18:43SAN0919murni besar50,000
3321/04 18:43RAJA1333murni besar50,000
3421/04 18:43IYBY_77murni besar50,000
3521/04 18:43BEZERTA88balak100,000
3621/04 18:43A0673F85balak20,000
3721/04 18:43NGENDOY22murni kecil25,000
3821/04 18:42SAIDIK09murni kecil50,000
3921/04 18:42CHESHA200murni kecil5,000
4021/04 18:42DETA10murni kecil5,000
4121/04 18:42BDX12murni kecil50,000
4221/04 18:42S3LUL3R9murni kecil50,000
4321/04 18:42BRUUK77murni kecil50,000
4421/04 18:42EXTREMM99murni kecil50,000
4521/04 18:42BEDESAW99murni kecil5,000
4621/04 18:42GEDANG42Lbalak200,000
4721/04 18:42GIOVANQQmurni besar5,000
4821/04 18:42DEDENDAUmurni kecil50,000
4921/04 18:42GONDEL06murni besar5,000
5021/04 18:41POLOLUmurni besar5,000